Regional Weather Roundup
Issued by NWS

Home | Current Version | Previous Version | Graphics & Text | Print | Product List | Glossary On
Versions: 1 2 3 4 5 6 7 8 9 10 11 12 13 14 15 16 17 18 19 20 21 22 23 24 25 26 27 28 29 30 31 32 33 34 35 36 37 38 39 40 41 42 43 44 45 46 47 48 49 50
752
ASUS45 KBOU 220907
RWRCO

WEATHER ROUNDUP FOR COLORADO
NATIONAL WEATHER SERVICE DENVER/BOULDER CO
300 AM MDT SAT JUL 22 2017

NOTE: "FAIR" INDICATES FEW OR NO CLOUDS BELOW 12000 FEET WITH NO
SIGNIFICANT WEATHER AND/OR OBSTRUCTIONS TO VISIBILITY.

COZ001>005-013-030-031-221000-
...NORTHWEST COLORADO...

CITY           SKY/WX    TMP DP  RH WIND       PRES   REMARKS
CRAIG          FAIR      53  50  89 SW6       30.27S
HAYDEN         FAIR      55  46  71 SE3       30.29S
MEEKER         FAIR      58  55  90 CALM      30.27S
RABBIT EARS PA FAIR      52  41  66 SW5       30.54F
STEAMBOAT SPGS FAIR      52  50  90 CALM      30.31S
WALDEN         FAIR      48  46  93 SE6       30.40S
$$

COZ006>008-011-221000-
...WEST CENTRAL VALLEYS...

CITY           SKY/WX    TMP DP  RH WIND       PRES   REMARKS
GRAND JUNCTION FAIR      66  63  90 W3        30.16S
MONTROSE       FAIR      63  58  83 S10       30.22F
EAGLE          FAIR      59  57  93 CALM      30.32F
RIFLE          FAIR      64  58  80 SW5       30.21F
DELTA          FAIR      69  58  68 W3        30.19S
NUCLA          FAIR      63  54  72 N3        30.25S
$$

COZ017>023-064>068-221000-
...SOUTHWEST COLORADO...

CITY           SKY/WX    TMP DP  RH WIND       PRES   REMARKS
DURANGO        FAIR      59  56  89 CALM      30.23F
CORTEZ         FAIR      59  56  89 NE5       30.17F
PAGOSA SPRINGS FAIR      56  54  91 CALM      30.32S
TELLURIDE      MOCLDY    53  52  97 SE3       30.43F
WOLF CREEK PAS MOCLDY    48  37  66 N3        30.67S
$$

COZ009-010-012-014-032>034-037-058>063-221000-
...CENTRAL COLORADO...

CITY           SKY/WX    TMP DP  RH WIND       PRES   REMARKS
ASPEN          FAIR      57  51  80 CALM      30.35F
BUENA VISTA    FAIR      58  48  68 W7        30.38F
COPPER MTN     MOCLDY    50  41  71 SW8       30.64F
BERTHOUD PASS  MOCLDY    43  30  61 NW17G26   30.66S
COTTONWOOD PAS FAIR      55  45  67 SE7       30.51F
GUNNISON       FAIR      59  53  80 NE3       30.35S
KREMMLING      FAIR      59  52  77 CALM      30.36F
LEADVILLE      FAIR      47  44  90 W5        30.50F
MONARCH PASS     N/A     45  41  87 E17       30.73F
SALIDA         FAIR      63  49  59 NW8       30.42F
SUNLIGHT       FAIR      46  41  81 E9        30.58F
WILKERSON PASS FAIR      46  41  81 W5        30.62F
$$

COZ069>075-221000-
...SAN LUIS VALLEY/SANGRE DE CRISTO MOUNTAINS...

CITY           SKY/WX    TMP DP  RH WIND       PRES   REMARKS
ALAMOSA        MOCLDY    58  52  80 SW3       30.31R
DEL NORTE      FAIR      60  47  61 W10       30.35S
LA VETA PASS   NOT AVBL
SAGUACHE         N/A    N/A N/A N/A MISG        N/A
$$

COZ035-036-038>040-221000-
...NORTHERN COLORADO FRONT RANGE...

CITY           SKY/WX    TMP DP  RH WIND       PRES   REMARKS
DENVER INTL AP CLOUDY    63  58  83 SW7       30.15F
DMNS CITY PARK   N/A     64  60  87 E7        30.14F
AURORA         MOCLDY    61  61  99 SE3       30.17F
FRONT RANGE AP MOCLDY    63  61  94 SW8       30.17F
ERIE MUNI ARPT FAIR      63  59  88 W5        30.15F
BOULDER MUN AP FAIR      61  59  94 N3        30.15F
CENTENNIAL     MOCLDY    63  57  81 SW5       30.18F
BROOMFIELD     FAIR      63  57  82 W7        30.18F
FORT COLLINS   FAIR      61  58  90 SW6       30.14F
LONGMONT       FAIR      63  59  86 W5        30.15F
$$

COZ041-046-047-076>085-087-088-221000-
...PIKES PEAK/PALMER DIVIDE AND SOUTHERN FOOTHILLS...

CITY           SKY/WX    TMP DP  RH WIND       PRES   REMARKS
COLO. SPRINGS  MOCLDY    66  56  70 NW14      30.19F
A. F. ACADEMY  CLOUDY    60  56  85 NW10      30.22F
SCHRIEVER AFB  MOCLDY    64  52  64 NW15G21   30.18F
CHEYENNE MTN   MOCLDY    66  47  50 NW13      30.18F
ELLICOTT       FAIR     N/A N/A N/A N12       30.16F
FALCON           N/A     63  50  63 NW13G21   30.23F
FORT CARSON    CLOUDY    65  54  65 NW6       30.16F
LIMON          FAIR      65  57  75 N5        30.12S
MONUMENT HILL  FAIR      55  54  94 W8        30.28F
CANON CITY     CLEAR     70  57  64 W12       30.15F
WALSENBURG     FAIR      61  54  77 W8        30.23S
TRINIDAD       FAIR      63  52  67 W7        30.21F
$$

COZ042>045-048>051-090-091-221000-
...NORTHEAST COLORADO...

CITY           SKY/WX    TMP DP  RH WIND       PRES   REMARKS
GREELEY ARPT   FAIR      65  60  84 W6        30.13F
AKRON          FAIR      64  60  87 NW9       30.07F
BURLINGTON     FAIR      68  57  68 NW13      30.04F
WRAY           NOT AVBL
YUMA           NOT AVBL
STERLING       FAIR      64  61  88 S12G23    30.05R
HOLYOKE        FAIR      73  55  53 W14       29.97F
FORT MORGAN    FAIR      63  60  90 NW5       30.11S
$$

COZ086-089-092>099-221000-
...SOUTHEAST COLORADO...

CITY           SKY/WX    TMP DP  RH WIND       PRES   REMARKS
PUEBLO         FAIR      71  56  58 W6        30.11S
LA JUNTA       FAIR      69  57  65 SW5       30.09S
LAMAR          FAIR      70  56  61 CALM      30.02F
SPRINGFIELD      N/A     64  56  75 N9        30.08F
$$




USA.gov is the U.S. government's official web portal to all federal, state and local government web resources and services.